�������l�o���
Date,Time,MP-1(��Sv/h),MP-2(��Sv/h),MP-3(��Sv/h),MP-4(��Sv/h),MP-5(��Sv/h),MP-6(��Sv/h),MP-7(��Sv/h),MP-8(��Sv/h),����,����(m/s),���J
2019/03/11,00:00,0.765,1.119,0.772,1.423,1.033,0.437,0.773,0.736,�k�k��,9.9,�L
2019/03/11,00:10,0.765,1.118,0.772,1.422,1.033,0.438,0.774,0.737,�k�k��,9.2,�L
2019/03/11,00:20,0.763,1.117,0.771,1.420,1.032,0.438,0.774,0.737,�k�k��,9.0,�L
2019/03/11,00:30,0.762,1.115,0.768,1.420,1.031,0.438,0.773,0.734,�k,7.8,�L
2019/03/11,00:40,0.753,1.101,0.767,1.412,1.015,0.438,0.768,0.731,�k�k��,9.0,�L
2019/03/11,00:50,0.752,1.098,0.766,1.409,1.015,0.436,0.769,0.732,�k�k��,8.6,�L
2019/03/11,01:00,0.753,1.096,0.765,1.407,1.012,0.436,0.770,0.731,�k�k��,7.6,�L
2019/03/11,01:10,0.750,1.093,0.763,1.407,1.011,0.438,0.769,0.729,�k�k��,9.1,�L
2019/03/11,01:20,0.747,1.090,0.762,1.405,1.008,0.438,0.769,0.730,�k�k��,8.9,�L
2019/03/11,01:30,0.745,1.088,0.761,1.401,1.005,0.438,0.767,0.729,�k�k��,9.4,�L
2019/03/11,01:40,0.742,1.084,0.760,1.398,1.001,0.437,0.767,0.729,�k�k��,8.7,�L
2019/03/11,01:50,0.738,1.076,0.756,1.398,1.001,0.435,0.766,0.727,�k�k��,9.2,�L
2019/03/11,02:00,0.736,1.076,0.755,1.390,0.999,0.434,0.766,0.728,�k�k��,9.7,�L
2019/03/11,02:10,0.739,1.073,0.753,1.384,0.995,0.432,0.763,0.725,�k�k��,9.0,�L
2019/03/11,02:20,0.739,1.072,0.752,1.385,0.997,0.433,0.767,0.725,�k�k��,10.2,�L
2019/03/11,02:30,0.737,1.072,0.751,1.379,0.994,0.432,0.764,0.726,�k�k��,8.9,�L
2019/03/11,02:40,0.736,1.069,0.749,1.381,0.993,0.431,0.764,0.725,�k�k��,7.8,�L
2019/03/11,02:50,0.735,1.060,0.747,1.370,0.988,0.433,0.762,0.724,�k�k��,7.4,�L
2019/03/11,03:00,0.735,1.060,0.745,1.369,0.985,0.432,0.762,0.724,�k�k��,7.0,�L
2019/03/11,03:10,0.734,1.058,0.746,1.368,0.983,0.431,0.760,0.724,�k�k��,7.0,�L
2019/03/11,03:20,0.729,1.056,0.745,1.364,0.982,0.430,0.762,0.722,�k�k��,8.4,�L
2019/03/11,03:30,0.727,1.054,0.744,1.362,0.977,0.429,0.760,0.722,�k��,8.6,�L
2019/03/11,03:40,0.730,1.053,0.742,1.356,0.976,0.429,0.761,0.721,�k�k��,7.6,�L
2019/03/11,03:50,0.729,1.052,0.743,1.359,0.974,0.430,0.758,0.720,�k�k��,7.7,�L
2019/03/11,04:00,0.730,1.051,0.741,1.357,0.973,0.429,0.757,0.723,�k�k��,7.7,�L
2019/03/11,04:10,0.728,1.050,0.741,1.355,0.972,0.427,0.758,0.720,�k�k��,7.3,�L
2019/03/11,04:20,0.729,1.052,0.742,1.357,0.972,0.430,0.759,0.720,�k�k��,7.0,�L
2019/03/11,04:30,0.731,1.052,0.741,1.356,0.973,0.428,0.757,0.722,�k�k��,7.0,�L
2019/03/11,04:40,0.732,1.054,0.743,1.357,0.976,0.427,0.760,0.720,�k�k��,6.3,�L
2019/03/11,04:50,0.727,1.049,0.742,1.355,0.972,0.427,0.757,0.720,�k�k��,6.1,�L
2019/03/11,05:00,0.730,1.051,0.740,1.354,0.972,0.427,0.756,0.721,�k�k��,7.1,�L
2019/03/11,05:10,0.730,1.051,0.740,1.354,0.970,0.428,0.758,0.720,�k�k��,7.4,�L
2019/03/11,05:20,0.729,1.052,0.742,1.355,0.969,0.426,0.758,0.720,�k�k��,7.0,�L
2019/03/11,05:30,0.725,1.046,0.738,1.350,0.967,0.425,0.756,0.717,�k�k��,6.6,�L
2019/03/11,05:40,0.723,1.043,0.735,1.345,0.961,0.423,0.754,0.716,�k�k��,6.8,�L
2019/03/11,05:50,0.723,1.041,0.735,1.343,0.959,0.425,0.753,0.717,�k�k��,6.8,�L
2019/03/11,06:00,0.724,1.043,0.736,1.346,0.962,0.424,0.754,0.716,�k�k��,7.4,�L
2019/03/11,06:10,0.724,1.039,0.736,1.341,0.959,0.426,0.751,0.718,�k�k��,7.2,�L
2019/03/11,06:20,0.719,1.038,0.732,1.338,0.954,0.424,0.753,0.715,�k�k��,7.4,�L
2019/03/11,06:30,0.721,1.036,0.732,1.337,0.954,0.426,0.750,0.713,�k�k��,7.5,�L
2019/03/11,06:40,0.718,1.035,0.732,1.337,0.952,0.424,0.752,0.715,�k�k��,7.2,�L
2019/03/11,06:50,0.722,1.038,0.734,1.338,0.955,0.426,0.751,0.715,�k,6.8,�L
2019/03/11,07:00,0.723,1.039,0.736,1.340,0.954,0.426,0.750,0.715,�k�k��,7.2,�L
2019/03/11,07:10,0.721,1.039,0.734,1.337,0.953,0.425,0.751,0.715,�k�k��,8.4,�L
2019/03/11,07:20,0.723,1.037,0.733,1.338,0.952,0.427,0.751,0.715,�k�k��,7.8,�L
2019/03/11,07:30,0.719,1.038,0.732,1.335,0.950,0.426,0.752,0.715,�k,8.9,�L
2019/03/11,07:40,0.718,1.035,0.732,1.332,0.947,0.424,0.748,0.715,�k,8.6,�L
2019/03/11,07:50,0.718,1.032,0.729,1.332,0.944,0.425,0.748,0.712,�k,9.3,�L
2019/03/11,08:00,0.715,1.028,0.727,1.325,0.940,0.424,0.744,0.711,�k,8.9,�L
2019/03/11,08:10,0.713,1.027,0.728,1.324,0.936,0.422,0.745,0.709,�k,8.5,�L
2019/03/11,08:20,0.715,1.029,0.727,1.325,0.936,0.423,0.747,0.711,�k�k��,10.5,�L
2019/03/11,08:30,0.715,1.031,0.728,1.329,0.936,0.422,0.746,0.710,�k,9.6,�L
2019/03/11,08:40,0.716,1.033,0.730,1.328,0.937,0.424,0.745,0.713,�k�k��,11.3,�L
2019/03/11,08:50,0.721,1.036,0.734,1.331,0.939,0.426,0.747,0.712,�k,10.5,�L
2019/03/11,09:00,0.721,1.039,0.734,1.334,0.939,0.425,0.750,0.715,�k�k��,11.3,�L
2019/03/11,09:10,0.722,1.039,0.733,1.333,0.940,0.426,0.749,0.714,�k�k��,11.3,�L
2019/03/11,09:20,0.723,1.040,0.732,1.332,0.941,0.426,0.749,0.714,�k,9.6,�L
2019/03/11,09:30,0.721,1.037,0.731,1.332,0.938,0.426,0.750,0.714,�k,10.2,�L
2019/03/11,09:40,0.719,1.038,0.731,1.327,0.937,0.424,0.751,0.715,�k�k��,9.5,�L
2019/03/11,09:50,0.717,1.033,0.731,1.325,0.934,0.426,0.748,0.712,�k�k��,10.0,�L
2019/03/11,10:00,0.720,1.033,0.729,1.326,0.932,0.425,0.749,0.712,�k,11.8,�L
2019/03/11,10:10,0.717,1.033,0.730,1.325,0.932,0.425,0.749,0.713,�k,13.9,�L
2019/03/11,10:20,0.720,1.034,0.731,1.327,0.933,0.427,0.750,0.713,�k,13.3,�L
2019/03/11,10:30,0.720,1.034,0.731,1.325,0.929,0.425,0.748,0.714,�k,12.4,�L
2019/03/11,10:40,0.719,1.033,0.731,1.325,0.929,0.427,0.748,0.714,�k,11.8,�L
2019/03/11,10:50,0.718,1.037,0.730,1.328,0.932,0.425,0.749,0.713,�k,12.5,�L
2019/03/11,11:00,0.717,1.035,0.729,1.324,0.929,0.425,0.749,0.715,�k,12.8,�L
2019/03/11,11:10,0.720,1.033,0.730,1.324,0.929,0.425,0.750,0.714,�k,12.7,�L
2019/03/11,11:20,0.719,1.034,0.731,1.325,0.929,0.426,0.748,0.713,�k,12.7,�L
2019/03/11,11:30,0.724,1.036,0.730,1.329,0.931,0.424,0.748,0.716,�k,13.0,�L
2019/03/11,11:40,0.724,1.040,0.732,1.333,0.931,0.426,0.750,0.716,�k�k��,12.8,�L
2019/03/11,11:50,0.726,1.043,0.734,1.334,0.934,0.428,0.751,0.718,�k�k��,13.8,�L
2019/03/11,12:00,0.724,1.040,0.732,1.332,0.935,0.426,0.753,0.717,-,CALM,�L
2019/03/11,12:10,0.720,1.038,0.733,1.330,0.931,0.426,0.751,0.716,�k��,12.4,�L
2019/03/11,12:20,0.722,1.036,0.730,1.327,0.930,0.427,0.749,0.716,�k�k��,8.0,�L
2019/03/11,12:30,0.721,1.033,0.730,1.326,0.929,0.426,0.748,0.716,�k�k��,14.1,�L
2019/03/11,12:40,0.719,1.033,0.730,1.327,0.929,0.426,0.749,0.715,�k��,11.0,�L
2019/03/11,12:50,0.722,1.037,0.731,1.327,0.929,0.427,0.751,0.716,�k��,12.7,�L
2019/03/11,13:00,0.723,1.038,0.732,1.332,0.930,0.428,0.751,0.717,�k��,10.5,�L
2019/03/11,13:10,0.727,1.043,0.735,1.335,0.932,0.428,0.752,0.717,�k��,10.6,�L
2019/03/11,13:20,0.728,1.049,0.737,1.339,0.936,0.428,0.753,0.718,�k��,10.8,�L
2019/03/11,13:30,0.728,1.052,0.736,1.345,0.939,0.428,0.756,0.718,�k��,10.7,�L
2019/03/11,13:40,0.732,1.053,0.742,1.345,0.943,0.429,0.754,0.720,�k��,14.1,��
2019/03/11,13:50,0.731,1.056,0.740,1.346,0.943,0.430,0.755,0.720,���k��,10.9,��
2019/03/11,14:00,0.734,1.059,0.741,1.350,0.945,0.429,0.754,0.720,���k��,10.5,��
2019/03/11,14:10,0.736,1.060,0.744,1.353,0.948,0.429,0.756,0.719,���k��,12.1,��
2019/03/11,14:20,0.736,1.061,0.743,1.355,0.948,0.430,0.754,0.719,���k��,11.9,��
2019/03/11,14:30,0.737,1.062,0.742,1.354,0.947,0.431,0.756,0.718,�k��,9.5,��
2019/03/11,14:40,0.736,1.062,0.745,1.359,0.950,0.431,0.757,0.719,�k��,10.0,��
2019/03/11,14:50,0.737,1.063,0.746,1.358,0.951,0.430,0.758,0.721,�k��,8.9,��
2019/03/11,15:00,0.738,1.063,0.743,1.359,0.950,0.430,0.760,0.719,���k��,8.5,��
2019/03/11,15:10,0.740,1.065,0.745,1.362,0.951,0.431,0.758,0.721,���k��,10.6,��
2019/03/11,15:20,0.740,1.066,0.747,1.362,0.951,0.431,0.761,0.721,���k��,9.2,��
2019/03/11,15:30,0.741,1.067,0.747,1.365,0.955,0.429,0.758,0.721,�k��,10.3,��
2019/03/11,15:40,0.741,1.067,0.748,1.363,0.954,0.432,0.758,0.720,���k��,7.3,��
2019/03/11,15:50,0.740,1.068,0.746,1.367,0.954,0.430,0.760,0.721,�k��,6.2,��
2019/03/11,16:00,0.741,1.069,0.746,1.367,0.955,0.432,0.759,0.722,���k��,5.7,��
2019/03/11,16:10,0.742,1.071,0.747,1.367,0.955,0.430,0.761,0.722,���k��,4.6,��
2019/03/11,16:20,0.740,1.072,0.747,1.369,0.958,0.433,0.759,0.723,�k��,5.1,��
2019/03/11,16:30,0.740,1.072,0.746,1.369,0.960,0.432,0.761,0.723,���k��,7.1,��
2019/03/11,16:40,0.741,1.072,0.745,1.370,0.960,0.432,0.762,0.724,���k��,5.8,��
2019/03/11,16:50,0.741,1.073,0.748,1.370,0.959,0.433,0.762,0.724,���k��,4.1,��
2019/03/11,17:00,0.744,1.072,0.747,1.371,0.962,0.433,0.760,0.721,���k��,3.4,��
2019/03/11,17:10,0.742,1.074,0.748,1.371,0.962,0.432,0.761,0.724,���k��,3.1,��
2019/03/11,17:20,0.742,1.073,0.749,1.371,0.961,0.433,0.762,0.722,���k��,2.6,��
2019/03/11,17:30,0.742,1.072,0.749,1.372,0.963,0.432,0.762,0.724,���k��,3.1,��
2019/03/11,17:40,0.741,1.074,0.748,1.371,0.962,0.433,0.761,0.724,��,4.7,��
2019/03/11,17:50,0.740,1.071,0.750,1.373,0.963,0.431,0.763,0.723,��,5.6,��
2019/03/11,18:00,0.743,1.072,0.748,1.374,0.964,0.431,0.762,0.724,���k��,5.8,��
2019/03/11,18:10,0.742,1.075,0.750,1.374,0.963,0.431,0.763,0.723,��,7.5,��
2019/03/11,18:20,0.743,1.072,0.748,1.376,0.964,0.432,0.763,0.723,��,9.2,��
2019/03/11,18:30,0.741,1.074,0.749,1.374,0.964,0.433,0.763,0.725,��,9.6,��
2019/03/11,18:40,0.741,1.074,0.750,1.377,0.965,0.432,0.762,0.723,��,7.6,��
2019/03/11,18:50,0.741,1.072,0.751,1.376,0.966,0.430,0.763,0.723,���k��,7.8,��
2019/03/11,19:00,0.741,1.075,0.748,1.374,0.965,0.432,0.762,0.725,��,7.8,��
2019/03/11,19:10,0.741,1.071,0.750,1.378,0.966,0.432,0.762,0.723,��,8.1,��
2019/03/11,19:20,0.744,1.073,0.751,1.375,0.968,0.432,0.763,0.724,���k��,9.6,��
2019/03/11,19:30,0.741,1.076,0.752,1.379,0.966,0.433,0.763,0.725,��,6.8,��
2019/03/11,19:40,0.742,1.075,0.751,1.380,0.966,0.431,0.764,0.725,���k��,5.0,��
2019/03/11,19:50,0.744,1.075,0.751,1.379,0.967,0.432,0.765,0.724,��,6.0,��
2019/03/11,20:00,0.741,1.073,0.752,1.378,0.969,0.433,0.765,0.725,���k��,6.2,��
2019/03/11,20:10,0.743,1.077,0.752,1.378,0.968,0.432,0.764,0.725,��,7.6,��
2019/03/11,20:20,0.743,1.076,0.751,1.380,0.969,0.433,0.763,0.726,��,7.1,��
2019/03/11,20:30,0.743,1.075,0.752,1.379,0.970,0.433,0.764,0.725,��,8.6,��
2019/03/11,20:40,0.743,1.074,0.754,1.382,0.969,0.434,0.762,0.724,��,8.7,��
2019/03/11,20:50,0.743,1.073,0.751,1.382,0.970,0.432,0.764,0.726,��,6.9,��
2019/03/11,21:00,0.741,1.076,0.750,1.382,0.970,0.432,0.762,0.726,���k��,10.6,��
2019/03/11,21:10,0.742,1.075,0.752,1.382,0.970,0.433,0.764,0.724,��,8.6,��
2019/03/11,21:20,0.743,1.076,0.751,1.381,0.970,0.433,0.764,0.723,���k��,9.9,��
2019/03/11,21:30,0.743,1.076,0.751,1.383,0.970,0.433,0.764,0.726,���k��,9.2,��
2019/03/11,21:40,0.743,1.076,0.751,1.382,0.971,0.432,0.764,0.724,���k��,8.5,��
2019/03/11,21:50,0.743,1.077,0.751,1.382,0.969,0.432,0.763,0.725,�k��,5.6,��
2019/03/11,22:00,0.743,1.077,0.753,1.381,0.970,0.432,0.765,0.726,�k��,7.8,��
2019/03/11,22:10,0.742,1.079,0.752,1.383,0.970,0.431,0.764,0.725,�k��,5.3,��
2019/03/11,22:20,0.744,1.078,0.754,1.383,0.973,0.433,0.762,0.725,���k��,4.8,��
2019/03/11,22:30,0.743,1.077,0.752,1.382,0.972,0.433,0.763,0.726,�k�k��,4.5,��
2019/03/11,22:40,0.743,1.078,0.753,1.383,0.972,0.434,0.763,0.726,�k�k��,4.1,��
2019/03/11,22:50,0.743,1.077,0.753,1.381,0.974,0.434,0.764,0.727,�k�k��,5.4,��
2019/03/11,23:00,0.744,1.078,0.751,1.383,0.972,0.433,0.764,0.727,�k��,5.1,��
2019/03/11,23:10,0.743,1.076,0.750,1.384,0.971,0.432,0.766,0.724,���k��,3.2,��
2019/03/11,23:20,0.741,1.079,0.753,1.384,0.974,0.433,0.765,0.726,���k��,4.4,��
2019/03/11,23:30,0.741,1.079,0.753,1.384,0.972,0.433,0.766,0.727,���k��,6.7,��
2019/03/11,23:40,0.743,1.076,0.752,1.385,0.974,0.432,0.766,0.726,��,6.6,��
2019/03/11,23:50,0.742,1.075,0.751,1.383,0.974,0.433,0.766,0.725,���k��,8.4,��
